MOLNIYA 1-40

Last updated on Oct. 29, 2020, 5:52 a.m. UTC

1 10925U 78055A   20301.55455901 -.00000187  00000-0  00000-0 0  9999
2 10925  62.5373 130.0780 7082827 278.4981  13.5899  2.00522138310717
UTC
Height (km)
Latitude
Longitude
Inclination
Orbital Period
UTC large
Height (km)
Speed (km/s)
/
Latitude / Longitude
Inclination (degrees)
Orbital Period (minutes)
Azimuth
Elevation
Range (km)
Doppler Factor
iOS Compass Heading
iOS Angle

Next 30 passes for location: Hong Kong

Rise time Rise Azimuth (degrees) Set time Set Azimuth (degrees) Duration Max altitude (degrees)

No matching passes for this satellites